Regional Weather Roundup
Issued by NWS Burlington, VT

Home | Current Version | Previous Version | Graphics & Text | Print | Product List | Glossary On
Versions: 1 2 3 4 5 6 7 8 9 10 11 12 13 14 15 16 17 18 19 20 21 22 23 24 25 26 27 28 29 30 31 32 33 34 35 36 37 38 39 40 41 42 43 44 45 46 47 48 49 50
000
ASUS41 KBTV 032110
RWRBTV
VERMONT REGIONAL WEATHER ROUNDUP
NATIONAL WEATHER SERVICE BURLINGTON VT
500 PM EDT WED JUN 03 2015

NOTE: "FAIR" INDICATES FEW OR NO CLOUDS BELOW 12,000 FEET WITH NO
SIGNIFICANT WEATHER AND/OR OBSTRUCTIONS TO VISIBILITY.

* THESE REPORTS ARE NOT UNDER NWS QUALITY CONTROL AND/OR DO NOT
  REPORT WEATHER SUCH AS PRECIPITATION AND FOG.

VTZ001>019-032200-
_____VERMONT_____


CITY           SKY/WX    TMP DP  RH WIND       PRES   REMARKS
BURLINGTON     PTCLDY    65  43  44 N7        30.22F
MONTPELIER     PTCLDY    63  42  46 NW3       30.25S
MORRISVILLE    PTCLDY    65  43  44 NE3       30.23S
ST. JOHNSBURY*   N/A     64  39  39 MISG      30.20S
LYNDONVILLE*     N/A     61  39  44 NW8       30.24S
MIDDLEBURY*      N/A     64  47  55 NW7       30.21F
RUTLAND*       PTCLDY    63  45  51 NW7       30.20F
SPRINGFIELD    CLEAR     67  40  37 VRB3      30.19F
HIGHGATE*        N/A     61  45  55 N6        30.24F HAZE
NEWPORT*         N/A     59  43  55 NE5       30.24F
BENNINGTON     CLEAR     68  47  46 NW8       30.18F
SUTTON*          N/A     59 N/A N/A MISG        N/A

_____LAKE CHAMPLAIN_____


CITY           SKY/WX    TMP DP  RH WIND       PRES   REMARKS

$$

NYZ007-026>031-035-052-083-032200-
_____NORTHERN NEW YORK_____


CITY           SKY/WX    TMP DP  RH WIND       PRES   REMARKS
PLATTSBURGH    CLEAR     60  40  47 E7        30.23F
SARANAC LAKE   CLEAR     65  41  41 E7        30.19F
MASSENA        CLEAR     67  46  47 NE6       30.21F
OGDENSBURG*    CLEAR     73  48  40 NE6       30.19S
POTSDAM*       CLEAR     37  19  48 E9        30.19F
WATERTOWN      CLEAR     71  47  42 NE8       30.16F
FT DRUM        CLEAR     71  47  41 N8        30.16F
ALBANY         PTCLDY    69  43  38 NE8       30.18F
GLENS FALLS    CLEAR     68  42  38 NE8       30.19F

$$
NHZ002-005-011-032200-
_____NEW HAMPSHIRE_____


CITY           SKY/WX    TMP DP  RH WIND       PRES   REMARKS
LEBANON        CLEAR     68  44  42 N6        30.19F
KEENE          CLEAR     68  43  40 W3        30.18F
MT WASHINGTON  FOG       39  37  93 W14         N/A  VSB 1/8
PLYMOUTH         N/A     66  49  55 W6        30.18F
WHITEFIELD     CLEAR     62  41  46 VRB3      30.21S

$$

_____REGIONAL QUEBEC LOCATIONS_____


CITY           SKY/WX    TMP DP  RH WIND       PRES   REMARKS
MONTREAL       MOCLDY    63  41  45 S8        30.22F
QUEBEC CITY    MOCLDY    59  41  51 VRB6      30.25F
SHERBROOKE     CLOUDY    57  43  58 NW7       30.24S

_____REGIONAL ONTARIO LOCATIONS_____


CITY           SKY/WX    TMP DP  RH WIND       PRES   REMARKS
OTTAWA         MOCLDY    70  50  49 VRB5      30.19F

______KEY______
VSB  - VISIBILITY IN MILES
WCI  - WIND CHILL INDEX
HX   - HEAT INDEX
$$
NNNN


USA.gov is the U.S. government's official web portal to all federal, state and local government web resources and services.